Retour au catalogue

ONEWEB-0523

ActifCommunicationsPO
NORAD 54141·PAYLOAD·🇬🇧 United Kingdom

Lancé Oct 22, 2022 depuis Satish Dhawan Space Centre

Loading…

Prochains Passages (prochaines 24 heures)

TLE

FraisSource: CelesTrak SupGP

Époque: Sep 14, 2026, 15:46 UTC

1 54141C 22138AE  26257.65712222 -.00002925  00000+0 -72021-2 0  2570
2 54141  87.9140 256.5942 0001809 113.4598 282.3922 13.20775407    13

Suivez ONEWEB-0523 en temps réel avec AllMySat

Download on the App Store